Погода в Алеховщине

Россия / Санкт-Петербург и Ленинградская область     60°24′15″N   33°51′21″E
темп.,
°C
ветер,
м/с
пор.,
м/с
влажн.,
%
обл.,
%
осадки,
мм/ч
давл.,
гПа
погр.,
м
7 августа, вс
вс700:00+13зсз51097100 3.7 1015601
03:00+12юз2698100 4.8 1015347
06:00+13зюз41197100 0.2 1015591
09:00+14з4876100 0.2 1017724
12:00+17з4751100 0.0 10181241
15:00+18з4763100 0.2 10181195
18:00+18з3653100 0.1 10191687
21:00+13зюз22754 0.1 101934
8 августа, пн
пн800:00+11юз23875 0.0 102059
03:00+10юз22935 0.0 102123
06:00+11ю2487100 0.0 1022109
09:00+16ююз246397 0.0 1023363
12:00+20ююз354593 0.0 10221431
15:00+20з2452100 0.0 1022407
18:00+15св228389 0.7 102252
21:00+12ссв369799 2.6 1023124
9 августа, вт
вт900:00+12с2396100 0.4 102488
03:00+12св1298100 1.4 102490
06:00+12всв139894 0.8 1025107
09:00+15с128271 0.9 1025511
12:00+18с346217 1.1 10251089
15:00+18ссз34597 2.1 10241315
18:00+18ссв23575 0.8 1024989
21:00+12с11875 1.3 102410
10 августа, ср
ср1000:00+10с11935 0.0 102510
03:00+9сз11944 0.0 102410
06:00+10ссз11890 0.0 102411
09:00+17зсз12600 0.0 1024452
12:00+20сз23445 0.0 10231437
15:00+22зсз33389 0.0 10222076
18:00+20зсз33435 0.0 10221224
21:00+13з2267100 0.0 102211
11 августа, чт
чт1100:00+12зюз116732 0.0 102310
03:00+11ююз22785 0.0 102320
06:00+12ююз269369 0.0 1023139
09:00+16юз2781100 0.0 1023392
12:00+22з474959 0.0 10221535
15:00+22зюз5843100 0.0 10201590
18:00+21з495073 0.0 10191458
21:00+17юз31268100 0.0 1019428